Location: Newark
(45.5000°N, 11.4167°E)
Time: 07:33:47
(UTC+00:00)

Transit 2A Rocket - Pass Details

Date: 27 August 2019
Orbit: 593 x 910 km, 66.7° (Epoch: 15 October)

Event Time Altitude Azimuth Distance (km) Brightness Sun altitude
Rises 19:31:58 0° 270° (W) 3,348 9.3 -15.2°
Reaches altitude 10° 19:35:42 10° 295° (WNW) 2,347 8.9 -15.8°
Maximum altitude 19:38:32 14° 327° (NNW) 2,005 8.1 -16.2°
Drops below altitude 10° 19:41:17 10° 360° (N) 2,236 7.9 -16.6°
Sets 19:44:42 0° 25° (NNE) 3,086 8.3 -17.1°
